Weather Roundup
Issued by NWS Corpus Christi, TX

Home | Current Version | Previous Version | Text Only | Print | Product List | Glossary On
Versions: 1 2 3 4 5 6 7 8 9 10 11 12 13 14 15 16 17 18 19 20 21 22 23 24 25 26 27 28 29 30 31 32 33 34 35 36 37 38 39 40 41 42 43 44 45 46 47 48 49 50
000
ASUS44 KCRP 031010
HRRCRP

SOUTH TEXAS REGIONAL WEATHER ROUNDUP
NATIONAL WEATHER SERVICE CORPUS CHRISTI TX
500 AM CDT THU SEP 03 2015


TXZ229>244-031100-
...CORPUS CHRISTI AREA OBSERVATIONS...

CITY           SKY/WX    TMP DP  RH WIND       PRES   REMARKS
CORPUS CHRISTI PTCLDY    76  73  91 CALM      29.89F
NAS CORPUS CHR PTCLDY    78  75  90 W3        29.89S
ROCKPORT       MOCLDY    77  74  90 S3        29.89S
KINGSVILLE NAS CLEAR     75  74  96 CALM      29.90S
ALICE          MOCLDY    74  74 100 CALM      29.90S
FALFURRIAS     CLEAR     74  73  94 CALM      29.89S
$$

...VICTORIA AREA OBSERVATIONS...

CITY           SKY/WX    TMP DP  RH WIND       PRES   REMARKS
VICTORIA       CLEAR     73  73 100 NE5       29.92S
BEEVILLE       FAIR      73  73 100 CALM      29.91S
PLEASANTON     MOCLDY    73  71  93 CALM      29.93S
SAN ANTONIO    MOCLDY    76  72  87 SE3       29.95S
$$

...LAREDO AREA OBSERVATIONS...

CITY           SKY/WX    TMP DP  RH WIND       PRES   REMARKS
LAREDO         CLEAR     78  74  87 E7        29.91F
COTULLA        CLEAR     77  72  84 SE7       29.91F
DEL RIO        CLEAR     77  68  73 E8        29.91F
MCALLEN        CLEAR     78  75  90 SE5       29.89S
HEBBRONVILLE   NOT AVBL
$$

...OTHER TEXAS OBSERVATIONS...

CITY           SKY/WX    TMP DP  RH WIND       PRES   REMARKS
BROWNSVILLE    CLEAR     76  74  93 S3        29.88F
HOUSTON        PTCLDY    73  72  96 NE3       29.94S
COL. STATION   CLOUDY    74  72  93 E3        29.95S
AUSTIN         PTCLDY    70  68  93 CALM      29.95S
WACO           CLEAR     74  68  81 SE6       29.96R
FORT WORTH     PTCLDY    77  66  68 S8        29.95S
WICHITA FALLS  CLEAR     71  64  78 S9        29.93F
LUBBOCK        PTCLDY    70  53  54 SW5       30.01S
EL PASO        MOCLDY    79  51  37 N10       30.05F
$$

...MARINE OBSERVATIONS...

STATION/POSITION TIME  SKY/WX   TEMP    WIND        PRES    VSBY  WAVE   SWELL
                                AIR SEA DIR/SP/G                  HT/PER HT/PER
                 (UTC)          (F)     (DEG/KT/KT) (MB)    (MI)  (FT/S) (FT/S)
PORT ARANSAS     1000            83 85  160/ 10/ 12 1012.6F
BUOY 90 E PORT A 0950            81 84  150/ 14/ 16 1012.6F         3/ 5
BUOY 45 SE BAFFI 0950            83 84  170/ 12/ 14 1011.7F         3/ 6   2/ 6
BUOY 200 E PT IS 0950            84 85  150/ 10/ 12 1012.9F         3/ 6   2/ 6
BUOY 15 E GALVES 0950            83 85  170/ 10/ 12 1013.4F         2/ 5   2/ 5
$$


USA.gov is the U.S. government's official web portal to all federal, state and local government web resources and services.